Flag for Germany Weather past 2 weeks in Rietberg, North Rhine-Westphalia, Germany

Now
45 °F

Passing clouds.


Feels Like: 41 °F
Forecast: 44 / 55 °F
Wind: 6 mph from West

Location: Paderborn / Lippstadt

Current Time: Oct 23, 2014 at 9:04:27 AM

Latest Report: Oct 23, 2014 at 8:20 AM


Visibility: N/A

Pressure: 30.18 "Hg

Humidity: 93%

Dew point: 43 °F

Location of RietbergLocation

Historic Weather in Rietberg — Graph

°F

Rietberg temperature yesterday

Maximum temperature yesterday: 48 °F (at 3:50 PM)
Minimum temperature yesterday: 43 °F (at 3:50 AM)
Average temperature yesterday: 45 °F

Past Weeks' High & Low Weather Summary

 TemperatureHumidityPressure
High72 °F (Oct 19, 1:20 PM)100% (Oct 9, 3:20 AM)30.18 "Hg (Oct 9, 3:20 AM)
Low43 °F (Oct 22, 3:50 AM)52% (Oct 14, 2:20 PM)29.47 "Hg (Oct 21, 5:20 PM)
Average56 °F80%29.86 "Hg
* Reported Oct 8 7:20 AM — Oct 23 7:50 AM, Rietberg, Weather by CustomWeather, © 2014

Note: Actual official high and low records may vary slightly from our data, if they occured in-between our weather recording intervals... More about our weather records

Advertising

Rietberg weather history for previous 24 hours

 ConditionsComfort  
Time TempWeatherWind HumidityBarometerVisibility
7:50 AM
Oct 23
45 °FPassing clouds.6 mph93%30.18 "HgN/A
7:20 AM45 °FPassing clouds.6 mph93%30.18 "HgN/A
6:50 AM45 °FPassing clouds.6 mph93%30.18 "HgN/A
6:20 AM45 °FPassing clouds.6 mph93%30.18 "HgN/A
5:50 AM45 °FPassing clouds.5 mph93%30.15 "HgN/A
5:20 AM45 °FPassing clouds.5 mph93%30.15 "HgN/A
4:50 AM45 °FPassing clouds.6 mph93%30.15 "HgN/A
4:20 AM45 °FPassing clouds.6 mph93%30.15 "HgN/A
3:50 AM45 °FPassing clouds.7 mph93%30.15 "HgN/A
3:20 AM46 °FPassing clouds.7 mph87%30.15 "HgN/A
11:50 PM
Oct 22
46 °FPassing clouds.8 mph76%30.12 "HgN/A
11:20 PM46 °FPassing clouds.9 mph82%30.12 "HgN/A
10:50 PM46 °FPassing clouds.9 mph76%30.12 "HgN/A
10:20 PM46 °FPassing clouds.10 mph76%30.09 "HgN/A
9:50 PM46 °FPassing clouds.9 mph71%30.09 "HgN/A
9:20 PM46 °FPassing clouds.10 mph71%30.09 "HgN/A
8:50 PM48 °FPassing clouds.9 mph66%30.07 "HgN/A
8:20 PM46 °FPassing clouds.10 mph71%30.07 "HgN/A
7:50 PM48 °FPassing clouds.10 mph71%30.07 "HgN/A
7:20 PM48 °FPassing clouds.12 mph71%30.04 "HgN/A
6:50 PM48 °FPartly sunny.13 mph66%30.01 "HgN/A
6:20 PM48 °FPartly sunny.13 mph66%30.01 "HgN/A
5:50 PM48 °FPartly sunny.14 mph66%29.98 "HgN/A
5:20 PM48 °FPartly sunny.14 mph66%29.98 "HgN/A
4:20 PM48 °FPartly sunny.15 mph71%29.95 "HgN/A
3:50 PM48 °FPartly sunny.16 mph71%29.95 "HgN/A
3:20 PM46 °FSprinkles. Partly sunny.14 mph82%29.92 "HgN/A
2:50 PM46 °FSprinkles. Broken clouds.16 mph82%29.92 "HgN/A
2:20 PM46 °FSprinkles. Broken clouds.15 mph82%29.92 "HgN/A
1:50 PM46 °FSprinkles. Broken clouds.16 mph82%29.89 "HgN/A
1:20 PM46 °FSprinkles. Broken clouds.16 mph82%29.89 "HgN/A
12:50 PM45 °FSprinkles. Broken clouds.16 mph87%29.89 "Hg6 mi
12:20 PM45 °FSprinkles. Broken clouds.15 mph87%29.89 "Hg6 mi
11:50 AM45 °FSprinkles. Broken clouds.15 mph87%29.89 "Hg6 mi
11:20 AM43 °FSprinkles. Broken clouds.12 mph93%29.89 "Hg6 mi
10:50 AM43 °FSprinkles. Broken clouds.15 mph93%29.89 "Hg5 mi
10:20 AM43 °FSprinkles. Broken clouds.13 mph87%29.89 "Hg6 mi
9:50 AM43 °FSprinkles. Broken clouds.14 mph93%29.89 "Hg6 mi
9:20 AM43 °FSprinkles. Broken clouds.13 mph87%29.86 "Hg6 mi
Weather by CustomWeather, © 2014

See weather overviewHow to use our weather pages